星链-5734 (STARLINK-5734 )

导读

STARLINK-5734是美国太空探索技术公司(SpaceX)于2023年2月12日发射的星链(Starlink)卫星,属于星链星座的组网卫星,用于提供全球覆盖的天基互联网服务。该卫星配备自动避撞系统,可有效规避轨道碰撞,截至2023年7月,星链星座已累计发射数千颗卫星,多数保持正常运行,持续推进低轨互联网星座部署,为全球用户提供宽带接入服务。

基本信息
目录编号:
55612
目录名称:
STARLINK-5734
国际标识:
2023-020AV
轨道中心:
EARTH
卫星名称:
星链-5734
卫星全名:
星链-5734 (STARLINK-5734 )
卫星状态:
在轨 (已飞行1219 天)
发射日期:
2023-02-12 UTC
国别 :
美国 (US)
星等 :
--
轨道信息
数据来源 国际轨道数据 AOE轨道数据
星历时间 2026-06-15T01:12:20+0800
9小时前
查看轨道信息
2026-06-11T05:00:00+0800
4天前
查看轨道信息
半长轴 6861.198km 6861.103km
偏心率 0.0001399 0.000073
轨道倾角 43.002° 42.998°
近地点辐角 278.457° 308.447°
升交点赤经 166.680° 188.379°
平近点角 81.612° 139.180°
近地点 482.101km 482.465km
远地点 484.021km 483.467km
周期 94.267分钟 94.265分钟
每日圈数 15.275763 15.27608
详细信息
固有亮度:
5
最大亮度:
2.5
卫星平台:
Starlink v1.5
覆盖范围:
全球
运营商:
太空探索技术公司
运营商所在国:
美国
制造商(研发单位):
太空探索技术公司
制造商所在国:
美国
使用方式:
暂无
卫星简介
星链(Starlink)计划是由太空探索技术公司(SpaceX)提出的一个巨型低轨卫星互联网星座项目,计划在2019年至2024年间在太空搭建由约1.2万颗卫星组成的“星链”网络,其中1584颗将部署在地球上空550千米处的近地轨道,并从2020年开始工作。该卫星仍在工作。
2D轨道图
3D轨道图
轨道高度分析图
轨道倾角分析图
轨道综合分析图
查看轨道综合分析图